To NAV CANADA Home Page Login to a new session Search on AWWS site Feedback and Comments Disclaimer Vers la page française équivalente Tips FAQ What's new on the site To the Forecasts and Observations / NOTAM section To "File a Flight Plan" website Publications and other links Update of the User's profile FIC Telephone Numbers My Weather Data Folder Route Weather Data Regional Weather Data Local Weather Data To the Forecasts and Observations / NOTAM section
Request Generated 10/17/2017 at 01:45:45 UTC . Weather information available at that time is displayed.

METAR/TAF

DAWSON CITY/YT    

LWIS CYDA 170100Z AUTO 00000KT M02/M06 A2953=
LWIS CYDA 170000Z AUTO VRB02KT M02/M06 A2953=
METAR CYDA 162300Z 00000KT 20SM FEW050 BKN087 OVC110 M02/M07 A2953
RMK SC1AC5AC3 SC TR CLIMAT -2.1/-5.3/0.0 LAST STFD OBS/NXT 171400Z
SLP026=

*** REMARK        : Forecast period has ended; this was the last TAF issued
*** REMARQUE : La période de prévision est échue; ceci était le dernier TAF qui a été émis
TAF CYDA 161738Z 1618/1623 06005KT 5SM -SHSN BKN015 OVC060 TEMPO
1618/1623 P6SM NSW SCT015 OVC060
RMK NXT FCST WILL BE ISSUED AT 171545Z=
Your time UTC time
Weather data provided by Environment Canada and NAV CANADA